SCP
0 0 0 0 0 0 0 0 0 0 0 0 0 0 0 0 0 0 0 0 0 0 0 0 0 0 0 0 0 0 0 0 0 -0 -0 0 -0 0 0 0 0 0 0
0 0 0 0 0 0 0 0 0 0 0 0 0 0 0 0 0 0 0 0 0 0 0 0 0 0 0 0 0 0 0 0 0 0 0 0 0 0 0 0 0 0 0
0 0 0 0 0 0 0 0 0 0 0 0 0 0 0 0 0 0 0 0 0 0 0 0 0 0 0 0 0 0 0 0 0 -0 0 0 0 0 0 0 0 0 0
0 0 0 0 0 0 0 0 0 0 0 0 0 0 0 0 0 0 0 0 0 0 0 0 0 0 0 0 -0 -0 -0 -0 -0 -0 0 0 0 0 0 0 0 0 0
0 0 0 0 0 0 0 0 0 0 0 0 0 0 0 0 0 0 0 0 0 0 0 0 0 0 -0 -0 -0 -0 -0 -0 -0 -0 -0 0 0 0 0 0 0 0 0
0 0 0 0 0 0 0 0 0 0 0 0 0 0 0 0 0 0 0 0 0 0 0 0 0 0 0 -0 -0 -0 0 0 -0 -0 0 0 0 0 0 0 0 0 0
0 0 0 0 0 0 0 0 0 0 0 0 0 0 0 0 0 0 0 0 0 0 0 0 0 0 -0 0 -0 -0 -0 -0 -0 -0 0 0 0 0 0 0 0 0 0
0 0 0 0 0 0 0 0 0 0 0 0 0 0 0 0 0 0 0 0 0 0 0 -0 0 -0 0 0 -0 0 -0 0 0 0 -0 -0 0 0 0 -0 0 0 0
0 0 0 0 0 0 0 0 0 0 0 0 0 0 0 0 0 0 0 0 0 0 0 0 0 0 -0 -0 0 0 -0 -0 -0 -0 -0 -0 -0 0 -0 0 0 0 0
0 0 0 0 0 0 0 0 0 0 0 0 0 0 0 0 0 0 0 0 0 0 0 -0 0 0 -0 -0 -0 -0 0 0 0 -0 -0 -0 -0 -0 -0 -0 0 0 0
0 0 0 0 0 0 0 0 0 0 0 0 0 0 0 0 0 0 0 0 0 0 0 -0 0 -0 -0 -0 -0 -0 -0 0 -0 -0 -0 -0 -0 -0 -0 -0 -0 0 0
0 0 0 0 0 0 0 0 0 0 0 0 0 0 0 0 0 0 0 0 -0 -0 0 -0 0 -0 -0 -0 -0 -0 -0 -0 -0 -0 -0 -0 0 0 0 0 -0 0 0
0 0 0 0 0 0 0 0 0 0 0 0 0 0 0 0 0 0 0 0 0 -0 0 -0 0 0 -0 0 -0 -0 -0 -0 -0 -0 -0 -0 0 0 0 0 0 0 0
0 0 0 0 0 0 0 0 0 0 0 0 0 0 0 0 0 0 0 0 -0 0 0 -0 0 0 0 0 -0 -0 -0 -0 -0 -0 -0 0 0 -0 0 0 0 0 0
0 0 0 0 0 0 0 0 0 0 0 0 0 0 0 0 0 0 0 0 -0 -0 0 -0 0 0 0 0 0 -0 -0 -0 -0 -0 -0 -0 -0 -0 0 0 0 0 0
0 0 0 0 0 0 0 0 0 0 0 0 0 0 0 0 0 0 0 0 -0 -0 -0 -0 0 0 0 0 0 0 -0 -0 -0 -0 -0 -0 0 0 0 0 0 0 0
0 0 0 0 0 0 0 0 0 0 0 0 0 0 0 0 0 0 0 0 0 -0 -0 0 0 0 0 0 0 0 0 0 -0 -0 -0 0 0 0 0 0 0 0 0
0 0 0 0 0 0 0 0 0 0 0 0 0 0 0 0 0 0 0 0 0 0 0 0 0 0 0 0 0 0 0 0 0 0 0 0 0 0 0 0 0 0 0
0 0 0 0 0 0 0 0 0 0 0 0 0 0 0 0 0 0 0 0 0 0 0 0 0 0 0 0 0 0 0 0 0 0 0 0 0 0 0 0 0 0 0
0 0 0 0 0 0 0 0 0 0 0 0 0 0 0 0 0 0 0 0 0 0 0 0 0 0 -0 -0 0 0 0 0 0 0 0 0 0 0 0 0 0 0 0
0 0 0 0 0 0 0 0 0 0 0 0 0 0 0 0 0 0 0 0 0 0 0 0 0 0 0 0 -0 -0 -0 -0 -0 0 0 0 0 0 0 0 0 0 0
0 0 0 0 0 0 0 0 0 0 0 0 0 0 0 0 0 0 0 0 0 0 0 0 0 0 0 0 -0 0 0 -0 -0 -0 -0 -0 -0 0 0 0 0 0 0
0 0 0 0 0 0 0 0 0 0 0 0 0 0 0 0 0 0 0 0 0 0 0 0 0 0 0 0 0 0 0 -0 -0 0 0 0 -0 -0 -0 -0 -0 -0 -0
0 0 0 0 0 0 0 0 0 0 0 0 0 0 0 0 0 0 0 0 0 0 0 0 0 0 0 0 0 0 0 0 0 0 -0 -0 -0 -0 -0 -0 0 -0 -0
0 0 0 0 0 0 0 0 0 0 0 0 0 0 0 0 0 0 0 0 0 0 0 0 0 0 0 0 0 0 0 0 0 0 0 0 -0 -0 -0 -0 -0 -0 -0
0 0 0 0 0 0 0 0 0 0 0 0 0 0 0 0 0 0 0 0 0 0 0 0 0 0 0 0 0 0 0 0 0 0 0 0 0 0 -0 -0 -0 -0 -0
Wind_Speed_500mb
50 56 59 61 60 61 62 62 57 51 51 54 58 62 62 62 61 59 55 41 40 53 62 59 66 59 62 58 57 64 67 65 59 82 84 81 83 77 72 66 65 62 60
53 57 59 60 60 61 62 60 56 51 50 53 56 60 61 61 60 56 49 36 50 63 58 67 75 78 79 72 63 59 60 59 55 75 77 73 70 72 73 68 59 61 51
55 59 60 61 63 65 64 61 56 51 52 52 54 58 61 61 60 53 44 48 60 60 66 75 79 83 80 80 75 73 68 60 58 63 78 73 69 63 59 56 53 54 45
57 59 61 62 64 66 67 63 57 51 53 54 55 57 59 60 59 46 50 57 65 60 70 71 74 71 73 75 73 76 72 70 68 69 74 70 64 57 56 55 50 59 36
57 58 60 63 64 65 65 62 57 53 53 55 58 56 57 57 51 51 54 61 61 64 65 65 68 68 66 62 63 60 64 74 75 68 70 66 69 62 55 51 57 26 14
57 57 59 61 64 63 62 58 54 54 56 57 58 59 58 53 52 50 53 56 57 61 60 59 60 78 80 75 62 62 68 74 66 64 75 69 80 63 57 58 23 7 7
54 56 58 61 63 62 60 56 53 55 57 57 60 59 57 56 49 51 51 53 57 54 59 61 65 78 80 79 71 79 82 77 68 72 77 75 67 54 50 37 5 5 3
54 56 58 62 63 63 60 57 53 53 54 57 57 56 57 52 49 49 49 51 55 53 58 59 65 77 76 68 76 88 88 52 24 12 23 40 46 26 19 11 5 3 7
56 60 63 65 65 63 61 59 56 55 55 53 52 53 53 53 49 46 48 54 52 61 52 54 60 69 63 66 74 80 55 45 32 34 36 29 19 16 8 1 8 7 8
58 62 63 64 63 63 61 62 60 54 51 50 49 49 51 59 56 46 49 51 56 48 55 58 60 57 60 63 67 61 36 31 21 25 30 36 32 28 21 18 18 9 10
57 61 63 61 61 61 61 59 57 53 51 50 54 55 61 60 58 45 45 52 47 58 57 53 75 57 54 58 52 48 8 10 13 24 29 32 30 27 21 20 21 22 19
58 61 61 62 61 61 61 58 56 54 54 57 60 62 58 56 45 44 49 41 52 51 42 66 61 51 47 49 31 41 19 17 19 24 36 36 32 29 30 24 24 27 27
58 61 62 61 62 59 61 60 60 55 53 62 60 58 58 59 46 52 55 51 41 51 53 55 50 35 32 35 22 31 26 28 29 33 35 34 31 26 20 19 18 18 16
60 65 66 65 65 61 58 60 56 55 54 60 59 59 62 59 54 62 56 56 44 52 57 50 33 23 24 29 29 38 37 33 29 31 29 25 20 17 17 17 14 14 13
60 66 69 66 65 65 58 59 53 46 44 48 49 52 56 55 55 52 53 48 45 38 48 30 21 18 22 29 33 40 36 32 31 28 27 28 28 26 25 21 21 18 21
62 67 69 66 65 64 63 58 51 46 40 38 37 41 43 41 46 47 48 42 36 30 33 31 23 21 21 24 24 26 27 27 27 23 22 22 23 23 23 22 21 19 21
63 66 67 64 64 63 62 61 63 51 49 48 46 41 38 41 45 44 43 38 36 30 26 22 20 17 14 13 14 14 16 17 16 15 14 15 17 17 17 19 20 19 18
58 62 64 61 61 60 59 60 61 65 68 60 49 48 42 42 42 43 36 36 27 22 22 19 16 13 10 6 3 2 3 3 3 5 6 7 8 9 10 11 13 14 15
56 61 61 59 58 58 58 58 59 60 60 60 58 52 46 50 52 43 39 38 34 28 24 18 17 14 10 9 9 7 7 8 8 8 7 7 8 8 6 7 8 8 8
51 56 59 58 57 57 57 58 59 59 59 60 60 62 59 65 58 51 45 41 36 29 25 21 18 17 16 15 15 16 16 15 15 14 13 11 11 10 9 7 5 6 5
49 54 58 55 56 55 56 57 59 60 60 59 60 59 52 53 55 52 49 43 39 33 26 21 18 19 21 22 22 23 23 23 23 21 20 19 17 16 14 14 12 10 9
47 52 56 57 55 54 54 55 58 59 59 60 60 60 59 57 56 54 51 46 39 33 29 25 19 17 20 24 27 28 28 28 29 30 29 27 24 23 22 21 21 20 19
43 49 54 55 55 55 54 55 56 57 59 60 63 64 65 64 62 62 58 51 45 38 32 28 24 19 20 21 24 28 31 30 32 38 35 34 32 30 30 28 28 28 27
41 46 53 56 56 56 57 56 55 57 59 61 63 63 65 66 66 66 63 59 54 47 40 34 30 24 20 20 22 23 26 27 34 38 40 39 37 36 37 36 34 33 32
38 43 48 55 58 58 58 57 56 57 59 62 61 61 64 64 64 64 63 61 59 55 49 43 37 30 23 20 19 20 21 22 26 31 35 37 37 37 37 37 34 34 33
36 41 45 50 56 58 59 60 59 57 60 61 60 60 62 65 66 64 62 61 63 57 52 45 39 36 29 20 18 17 16 17 19 21 24 28 29 30 31 31 31 32 30
Wind_Direction_500mb
330 333 334 333 332 330 328 329 328 327 329 330 331 330 332 332 333 327 328 329 325 332 326 317 318 320 311 305 296 296 293 289 285 290 291 291 286 287 291 289 286 287 286
333 335 332 331 330 329 329 330 328 324 325 327 328 328 331 333 331 328 328 335 332 325 327 325 321 318 311 310 304 297 292 288 276 280 290 291 288 283 290 291 289 291 285
335 333 332 331 331 330 330 329 325 320 321 324 326 327 331 331 328 326 334 330 330 328 328 320 318 319 309 303 297 297 297 292 282 276 283 290 289 291 296 298 297 305 292
333 332 331 330 330 329 328 327 324 320 321 322 324 327 329 328 325 327 325 329 328 320 327 326 326 328 329 325 311 301 298 291 287 277 281 289 292 300 301 301 307 312 276
331 331 331 329 328 328 327 327 323 320 321 323 324 327 329 327 323 325 320 322 315 321 325 327 331 335 330 326 325 323 315 287 275 270 269 274 280 290 293 300 291 254 256
331 331 330 328 330 330 328 327 325 322 323 325 328 331 332 332 322 319 318 316 317 320 317 325 329 332 330 329 325 320 315 312 303 277 268 264 279 281 294 302 265 223 289
331 333 332 332 332 332 331 330 328 325 326 328 333 333 336 340 325 321 320 317 318 322 325 325 326 328 327 327 334 326 320 312 295 269 257 260 267 278 290 288 287 269 259
335 335 336 335 335 335 334 333 331 329 331 335 334 339 340 344 326 326 325 322 324 328 326 325 329 328 326 332 327 325 326 3 15 29 277 263 261 273 284 245 208 173 141
340 341 341 339 338 336 337 336 337 338 339 337 342 343 345 348 337 331 330 328 330 327 327 331 329 329 331 328 328 329 348 24 56 75 64 85 111 144 106 94 142 158 91
346 344 343 342 340 340 339 340 344 341 340 344 346 350 353 353 349 336 334 332 330 327 336 332 330 330 332 331 332 330 348 34 46 70 84 98 105 106 96 88 63 62 117
348 347 348 347 345 343 344 344 344 346 348 351 352 357 357 353 348 339 338 335 329 330 332 328 328 336 335 337 339 358 50 50 52 77 111 101 90 93 83 76 73 56 67
351 351 350 351 352 349 346 347 349 352 350 356 355 352 344 344 350 342 340 337 335 333 332 328 331 337 342 346 3 42 96 83 79 84 92 92 91 84 77 79 77 68 75
354 354 353 354 356 356 349 352 352 353 355 356 349 337 338 339 353 358 350 342 341 332 331 331 332 347 2 17 71 99 121 104 94 85 82 82 84 85 83 77 67 62 66
357 357 357 357 356 359 357 357 356 355 356 348 337 338 334 338 353 353 342 347 341 338 328 337 347 1 30 45 81 97 104 105 95 87 76 70 70 74 75 63 60 66 72
0 360 360 359 357 357 7 3 0 357 348 334 335 332 331 339 343 339 341 341 342 336 324 341 0 30 49 62 65 87 97 100 93 83 79 72 67 65 68 66 63 62 71
1 2 1 358 359 0 2 7 14 9 359 347 339 335 335 331 334 340 341 337 345 334 341 348 7 25 38 50 60 63 81 88 89 83 74 70 66 63 62 67 72 69 66
1 1 1 360 1 2 3 2 0 12 10 5 358 350 341 336 339 342 341 333 340 337 337 344 355 6 22 36 48 57 64 75 78 76 66 58 51 50 53 57 62 64 62
2 1 1 2 2 4 4 3 360 357 357 3 8 4 360 355 345 340 343 343 348 346 340 338 337 340 343 344 360 28 60 68 50 41 25 23 42 38 40 52 57 60 61
1 2 2 4 5 6 5 3 1 360 359 2 5 11 4 8 358 350 353 354 356 353 345 334 318 308 296 287 276 263 256 259 262 274 286 303 323 343 9 19 22 45 46
3 3 4 4 7 9 6 3 3 2 3 4 4 359 1 358 353 360 2 358 356 353 343 334 315 295 281 267 257 254 256 257 260 264 271 276 279 284 295 309 316 322 337
4 6 6 7 9 9 7 5 3 3 3 4 5 6 1 350 360 2 1 1 355 352 348 339 321 299 282 271 262 254 249 251 255 257 258 261 263 267 272 280 287 289 289
5 7 8 8 10 11 9 7 6 5 5 4 6 9 10 9 8 7 6 3 1 355 348 344 335 311 290 277 268 263 256 251 253 256 257 259 261 265 270 274 280 284 287
4 8 9 11 10 12 12 11 9 8 7 7 7 8 11 12 12 10 9 10 7 3 356 348 341 329 305 293 275 266 261 257 253 256 258 260 261 262 265 267 271 274 278
3 8 8 10 11 13 13 12 11 10 9 10 9 11 12 14 13 13 13 12 11 8 2 354 345 334 321 303 292 282 272 260 254 256 259 259 260 260 262 263 262 262 261
5 8 8 9 10 11 13 12 11 10 9 9 10 11 14 15 14 15 16 16 14 12 7 2 355 343 327 313 303 289 282 275 266 260 260 262 262 260 260 261 260 259 258
6 9 8 8 10 11 11 11 10 9 8 10 11 12 13 14 15 13 14 15 15 15 13 7 2 355 346 328 309 302 293 285 278 269 264 263 261 259 256 255 254 256 254
Wind_Speed_850mb
50 56 59 61 60 61 62 62 57 51 51 54 58 62 62 62 61 59 55 41 40 53 62 59 66 59 62 58 57 64 67 65 59 82 84 81 83 77 72 66 65 62 60
53 57 59 60 60 61 62 60 56 51 50 53 56 60 61 61 60 56 49 36 50 63 58 67 75 78 79 72 63 59 60 59 55 75 77 73 70 72 73 68 59 61 51
55 59 60 61 63 65 64 61 56 51 52 52 54 58 61 61 60 53 44 48 60 60 66 75 79 83 80 80 75 73 68 60 58 63 78 73 69 63 59 56 53 54 45
57 59 61 62 64 66 67 63 57 51 53 54 55 57 59 60 59 46 50 57 65 60 70 71 74 71 73 75 73 76 72 70 68 69 74 70 64 57 56 55 50 59 36
57 58 60 63 64 65 65 62 57 53 53 55 58 56 57 57 51 51 54 61 61 64 65 65 68 68 66 62 63 60 64 74 75 68 70 66 69 62 55 51 57 26 14
57 57 59 61 64 63 62 58 54 54 56 57 58 59 58 53 52 50 53 56 57 61 60 59 60 78 80 75 62 62 68 74 66 64 75 69 80 63 57 58 23 7 7
54 56 58 61 63 62 60 56 53 55 57 57 60 59 57 56 49 51 51 53 57 54 59 61 65 78 80 79 71 79 82 77 68 72 77 75 67 54 50 37 5 5 3
54 56 58 62 63 63 60 57 53 53 54 57 57 56 57 52 49 49 49 51 55 53 58 59 65 77 76 68 76 88 88 52 24 12 23 40 46 26 19 11 5 3 7
56 60 63 65 65 63 61 59 56 55 55 53 52 53 53 53 49 46 48 54 52 61 52 54 60 69 63 66 74 80 55 45 32 34 36 29 19 16 8 1 8 7 8
58 62 63 64 63 63 61 62 60 54 51 50 49 49 51 59 56 46 49 51 56 48 55 58 60 57 60 63 67 61 36 31 21 25 30 36 32 28 21 18 18 9 10
57 61 63 61 61 61 61 59 57 53 51 50 54 55 61 60 58 45 45 52 47 58 57 53 75 57 54 58 52 48 8 10 13 24 29 32 30 27 21 20 21 22 19
58 61 61 62 61 61 61 58 56 54 54 57 60 62 58 56 45 44 49 41 52 51 42 66 61 51 47 49 31 41 19 17 19 24 36 36 32 29 30 24 24 27 27
58 61 62 61 62 59 61 60 60 55 53 62 60 58 58 59 46 52 55 51 41 51 53 55 50 35 32 35 22 31 26 28 29 33 35 34 31 26 20 19 18 18 16
60 65 66 65 65 61 58 60 56 55 54 60 59 59 62 59 54 62 56 56 44 52 57 50 33 23 24 29 29 38 37 33 29 31 29 25 20 17 17 17 14 14 13
60 66 69 66 65 65 58 59 53 46 44 48 49 52 56 55 55 52 53 48 45 38 48 30 21 18 22 29 33 40 36 32 31 28 27 28 28 26 25 21 21 18 21
62 67 69 66 65 64 63 58 51 46 40 38 37 41 43 41 46 47 48 42 36 30 33 31 23 21 21 24 24 26 27 27 27 23 22 22 23 23 23 22 21 19 21
63 66 67 64 64 63 62 61 63 51 49 48 46 41 38 41 45 44 43 38 36 30 26 22 20 17 14 13 14 14 16 17 16 15 14 15 17 17 17 19 20 19 18
58 62 64 61 61 60 59 60 61 65 68 60 49 48 42 42 42 43 36 36 27 22 22 19 16 13 10 6 3 2 3 3 3 5 6 7 8 9 10 11 13 14 15
56 61 61 59 58 58 58 58 59 60 60 60 58 52 46 50 52 43 39 38 34 28 24 18 17 14 10 9 9 7 7 8 8 8 7 7 8 8 6 7 8 8 8
51 56 59 58 57 57 57 58 59 59 59 60 60 62 59 65 58 51 45 41 36 29 25 21 18 17 16 15 15 16 16 15 15 14 13 11 11 10 9 7 5 6 5
49 54 58 55 56 55 56 57 59 60 60 59 60 59 52 53 55 52 49 43 39 33 26 21 18 19 21 22 22 23 23 23 23 21 20 19 17 16 14 14 12 10 9
47 52 56 57 55 54 54 55 58 59 59 60 60 60 59 57 56 54 51 46 39 33 29 25 19 17 20 24 27 28 28 28 29 30 29 27 24 23 22 21 21 20 19
43 49 54 55 55 55 54 55 56 57 59 60 63 64 65 64 62 62 58 51 45 38 32 28 24 19 20 21 24 28 31 30 32 38 35 34 32 30 30 28 28 28 27
41 46 53 56 56 56 57 56 55 57 59 61 63 63 65 66 66 66 63 59 54 47 40 34 30 24 20 20 22 23 26 27 34 38 40 39 37 36 37 36 34 33 32
38 43 48 55 58 58 58 57 56 57 59 62 61 61 64 64 64 64 63 61 59 55 49 43 37 30 23 20 19 20 21 22 26 31 35 37 37 37 37 37 34 34 33
36 41 45 50 56 58 59 60 59 57 60 61 60 60 62 65 66 64 62 61 63 57 52 45 39 36 29 20 18 17 16 17 19 21 24 28 29 30 31 31 31 32 30
Wind_Direction_850mb
330 333 334 333 332 330 328 329 328 327 329 330 331 330 332 332 333 327 328 329 325 332 326 317 318 320 311 305 296 296 293 289 285 290 291 291 286 287 291 289 286 287 286
333 335 332 331 330 329 329 330 328 324 325 327 328 328 331 333 331 328 328 335 332 325 327 325 321 318 311 310 304 297 292 288 276 280 290 291 288 283 290 291 289 291 285
335 333 332 331 331 330 330 329 325 320 321 324 326 327 331 331 328 326 334 330 330 328 328 320 318 319 309 303 297 297 297 292 282 276 283 290 289 291 296 298 297 305 292
333 332 331 330 330 329 328 327 324 320 321 322 324 327 329 328 325 327 325 329 328 320 327 326 326 328 329 325 311 301 298 291 287 277 281 289 292 300 301 301 307 312 276
331 331 331 329 328 328 327 327 323 320 321 323 324 327 329 327 323 325 320 322 315 321 325 327 331 335 330 326 325 323 315 287 275 270 269 274 280 290 293 300 291 254 256
331 331 330 328 330 330 328 327 325 322 323 325 328 331 332 332 322 319 318 316 317 320 317 325 329 332 330 329 325 320 315 312 303 277 268 264 279 281 294 302 265 223 289
331 333 332 332 332 332 331 330 328 325 326 328 333 333 336 340 325 321 320 317 318 322 325 325 326 328 327 327 334 326 320 312 295 269 257 260 267 278 290 288 287 269 259
335 335 336 335 335 335 334 333 331 329 331 335 334 339 340 344 326 326 325 322 324 328 326 325 329 328 326 332 327 325 326 3 15 29 277 263 261 273 284 245 208 173 141
340 341 341 339 338 336 337 336 337 338 339 337 342 343 345 348 337 331 330 328 330 327 327 331 329 329 331 328 328 329 348 24 56 75 64 85 111 144 106 94 142 158 91
346 344 343 342 340 340 339 340 344 341 340 344 346 350 353 353 349 336 334 332 330 327 336 332 330 330 332 331 332 330 348 34 46 70 84 98 105 106 96 88 63 62 117
348 347 348 347 345 343 344 344 344 346 348 351 352 357 357 353 348 339 338 335 329 330 332 328 328 336 335 337 339 358 50 50 52 77 111 101 90 93 83 76 73 56 67
351 351 350 351 352 349 346 347 349 352 350 356 355 352 344 344 350 342 340 337 335 333 332 328 331 337 342 346 3 42 96 83 79 84 92 92 91 84 77 79 77 68 75
354 354 353 354 356 356 349 352 352 353 355 356 349 337 338 339 353 358 350 342 341 332 331 331 332 347 2 17 71 99 121 104 94 85 82 82 84 85 83 77 67 62 66
357 357 357 357 356 359 357 357 356 355 356 348 337 338 334 338 353 353 342 347 341 338 328 337 347 1 30 45 81 97 104 105 95 87 76 70 70 74 75 63 60 66 72
0 360 360 359 357 357 7 3 0 357 348 334 335 332 331 339 343 339 341 341 342 336 324 341 0 30 49 62 65 87 97 100 93 83 79 72 67 65 68 66 63 62 71
1 2 1 358 359 0 2 7 14 9 359 347 339 335 335 331 334 340 341 337 345 334 341 348 7 25 38 50 60 63 81 88 89 83 74 70 66 63 62 67 72 69 66
1 1 1 360 1 2 3 2 0 12 10 5 358 350 341 336 339 342 341 333 340 337 337 344 355 6 22 36 48 57 64 75 78 76 66 58 51 50 53 57 62 64 62
2 1 1 2 2 4 4 3 360 357 357 3 8 4 360 355 345 340 343 343 348 346 340 338 337 340 343 344 360 28 60 68 50 41 25 23 42 38 40 52 57 60 61
1 2 2 4 5 6 5 3 1 360 359 2 5 11 4 8 358 350 353 354 356 353 345 334 318 308 296 287 276 263 256 259 262 274 286 303 323 343 9 19 22 45 46
3 3 4 4 7 9 6 3 3 2 3 4 4 359 1 358 353 360 2 358 356 353 343 334 315 295 281 267 257 254 256 257 260 264 271 276 279 284 295 309 316 322 337
4 6 6 7 9 9 7 5 3 3 3 4 5 6 1 350 360 2 1 1 355 352 348 339 321 299 282 271 262 254 249 251 255 257 258 261 263 267 272 280 287 289 289
5 7 8 8 10 11 9 7 6 5 5 4 6 9 10 9 8 7 6 3 1 355 348 344 335 311 290 277 268 263 256 251 253 256 257 259 261 265 270 274 280 284 287
4 8 9 11 10 12 12 11 9 8 7 7 7 8 11 12 12 10 9 10 7 3 356 348 341 329 305 293 275 266 261 257 253 256 258 260 261 262 265 267 271 274 278
3 8 8 10 11 13 13 12 11 10 9 10 9 11 12 14 13 13 13 12 11 8 2 354 345 334 321 303 292 282 272 260 254 256 259 259 260 260 262 263 262 262 261
5 8 8 9 10 11 13 12 11 10 9 9 10 11 14 15 14 15 16 16 14 12 7 2 355 343 327 313 303 289 282 275 266 260 260 262 262 260 260 261 260 259 258
6 9 8 8 10 11 11 11 10 9 8 10 11 12 13 14 15 13 14 15 15 15 13 7 2 355 346 328 309 302 293 285 278 269 264 263 261 259 256 255 254 256 254